Location: Newark
(49.8753°N, 23.0797°E)
Time: 02:15:42
(UTC+00:00)

ISS - Pass Details

Date: 28 June 2021
Orbit: 419 x 421 km, 51.6° (Epoch: 02 August)

Event Time Altitude Azimuth Distance (km) Brightness Sun altitude
Exits shadow 01:30:01 - 185° (S) 1,933 -0.9 -6.8°
Reaches altitude 10° 01:31:43 10° 165° (SSE) 1,496 -1.3 -6.6°
Maximum altitude 01:33:18 13° 137° (SE) 1,335 -1.2 -6.4°
Drops below altitude 10° 01:34:54 10° 108° (ESE) 1,500 -0.6 -6.3°
Sets 01:37:53 0° 79° (E) 2,369 1.0 -5.9°
